RH
74 70 70 69 63 61 61 55 76 56 65 49 56 57 57 63 64 56 52 52 52 53 51 46 46 48 49 51 53 54 58 60 65 68 69 70 72 74 74 77 79 82 85 88
78 75 79 87 84 71 59 56 60 55 59 50 55 54 54 58 57 58 53 53 52 50 48 49 51 53 56 56 55 57 59 67 68 69 68 69 72 72 75 77 80 83 86 89
90 76 78 83 65 72 69 78 61 74 58 54 53 52 54 59 59 56 55 53 51 51 51 52 53 58 58 57 56 60 66 67 67 66 68 69 72 75 77 79 82 86 90 92
96 82 98 50 46 55 67 64 74 70 62 56 56 59 58 57 60 60 55 50 51 53 54 53 58 56 57 55 56 64 66 66 66 68 70 72 76 77 80 83 87 90 90 92
97 95 75 60 59 67 70 61 63 70 56 60 60 56 58 55 56 58 53 52 53 55 56 60 58 58 58 57 61 66 68 68 69 72 75 77 79 81 84 88 88 90 89 91
99 99 89 64 51 43 42 71 51 67 60 63 68 73 68 62 55 55 51 52 58 56 61 60 59 58 60 64 67 71 70 72 74 77 79 81 84 88 86 87 87 90 90 86
92 87 84 60 48 42 67 60 50 58 62 66 71 67 70 58 56 53 54 56 60 62 63 62 60 63 66 69 72 72 74 78 79 82 84 86 86 86 87 94 93 89 90 93
94 97 91 55 47 56 57 59 62 66 70 73 70 64 61 58 59 58 60 60 65 64 64 58 62 67 70 73 71 75 80 83 85 88 90 87 89 94 91 89 96 95 92 92
83 73 57 41 44 47 53 65 64 66 66 63 64 60 58 62 65 64 64 68 66 66 63 61 65 68 75 71 75 81 86 90 92 92 92 91 87 93 97 92 93 92 91 90
74 68 58 47 56 58 55 64 62 60 61 60 62 60 64 64 65 68 70 70 67 67 69 69 68 68 70 75 79 86 94 95 95 93 88 91 93 93 97 94 95 89 88 91
82 71 55 53 54 60 64 64 62 57 58 58 60 64 66 70 70 72 74 69 70 71 73 74 72 70 72 78 84 94 96 98 94 92 94 93 93 94 97 98 97 97 96 97
79 66 66 64 58 66 76 88 58 59 60 59 59 64 67 75 73 79 73 73 72 75 77 76 77 76 78 78 89 97 100 94 95 94 93 93 94 93 88 92 95 97 98 98
73 91 92 79 77 89 93 85 56 56 56 62 67 66 68 73 80 78 75 74 77 80 78 79 80 81 81 85 94 100 100 97 95 93 94 95 95 94 93 87 86 90 96 98
87 85 97 92 93 96 93 90 75 62 63 66 70 69 72 75 79 79 80 80 80 80 80 83 84 83 84 91 96 100 100 94 95 97 97 97 97 97 97 95 93 90 86 92
96 97 90 95 95 95 94 86 68 66 68 73 73 76 76 81 82 83 81 83 80 83 82 86 88 89 89 90 96 99 100 97 98 98 98 97 99 98 96 96 94 94 92 89
96 95 95 94 94 94 90 68 67 72 72 79 81 82 83 82 82 82 82 83 89 92 88 91 92 93 92 90 95 100 98 96 98 98 100 99 98 97 95 94 94 93 94 96
94 95 94 94 93 93 78 64 67 72 78 81 85 85 84 82 83 85 86 86 85 82 89 93 91 95 89 86 100 100 93 99 100 100 100 100 100 96 97 96 95 95 96 98
96 95 94 91 91 79 72 72 76 80 84 86 87 87 84 86 94 93 91 88 74 78 94 83 95 96 85 93 100 89 90 100 100 100 100 100 97 99 97 97 96 96 97 97
94 93 90 79 71 74 77 83 85 86 86 86 86 89 90 92 92 92 88 83 85 94 98 79 94 93 91 99 98 85 89 98 100 100 100 98 99 97 97 98 97 97 97 97
85 75 75 78 77 80 87 87 86 88 88 85 87 92 94 89 90 86 79 79 90 98 99 79 86 98 89 100 97 84 88 96 100 100 100 100 100 98 98 96 97 97 97 98
86 81 82 84 89 86 84 84 85 92 93 88 86 91 91 86 84 82 78 84 87 97 93 78 91 97 94 99 84 84 89 95 100 100 100 100 100 100 98 98 98 98 98 98
90 91 94 92 92 95 90 87 85 92 95 93 92 92 89 84 78 81 85 91 89 100 79 87 94 89 98 88 85 86 89 92 97 100 100 100 100 100 100 99 98 98 98 98
93 93 92 91 91 94 96 95 93 91 91 90 91 89 87 89 83 89 89 87 91 99 70 98 93 94 95 78 86 90 91 92 95 100 99 99 100 100 100 99 99 98 98 98
96 94 95 91 91 95 97 95 93 93 90 93 94 91 88 87 86 95 87 79 96 100 70 100 99 100 70 78 85 90 93 92 95 100 100 100 100 100 100 100 100 99 97 96
93 95 95 93 90 90 90 91 92 95 95 95 95 94 89 91 90 92 81 77 79 85 71 79 97 91 69 74 84 89 91 93 100 100 100 100 100 100 100 100 99 98 98 96
94 92 90 88 85 87 88 94 94 96 95 96 95 95 94 92 94 97 84 76 71 75 75 66 64 68 70 71 78 83 86 89 92 99 100 96 97 96 96 96 99 98 98 97
95 97 94 93 95 95 95 94 95 93 97 96 93 93 92 86 93 100 79 70 70 74 78 76 66 66 69 70 70 73 77 82 87 93 97 99 96 98 96 94 98 97 97 97
Wind_Speed
3 4 2 4 5 9 15 15 9 5 11 7 8 10 9 7 7 7 7 6 4 3 4 8 12 14 17 20 23 24 25 26 26 26 27 27 28 28 29 29 29 29 29 29
2 1 4 5 10 12 18 18 16 20 24 4 4 5 5 7 8 7 7 6 4 4 5 8 11 14 15 20 23 24 25 25 26 25 26 26 27 29 29 29 29 29 29 28
4 0 3 7 14 18 12 8 18 16 21 6 5 6 6 6 7 7 6 5 4 3 5 7 11 15 19 22 23 24 23 24 24 25 27 28 29 29 29 29 29 29 29 27
3 2 5 4 4 6 11 10 14 4 3 4 4 5 5 4 6 7 6 4 3 2 6 9 13 16 19 22 23 22 22 23 25 26 29 30 30 29 30 29 29 29 29 29
4 5 6 10 4 6 7 8 16 17 6 4 6 4 2 4 4 5 5 5 2 3 7 9 13 16 19 22 22 22 22 25 27 28 30 30 30 31 31 30 30 30 29 29
4 4 8 7 4 3 3 6 6 9 11 10 7 4 3 7 6 6 7 4 3 6 7 10 14 16 20 20 22 20 24 28 30 30 29 31 31 31 30 30 32 30 30 30
7 8 7 6 7 5 5 6 5 7 11 11 6 1 7 9 6 9 6 4 3 6 9 12 14 17 19 20 20 24 28 29 31 30 30 30 30 31 32 32 30 31 31 29
4 6 12 7 6 9 4 3 5 6 5 8 11 10 10 8 6 7 5 3 6 9 12 13 15 19 20 21 25 28 28 31 31 31 29 29 31 32 31 32 29 27 28 28
11 9 1 17 3 4 5 6 4 6 7 11 13 7 9 6 6 6 4 4 7 9 12 14 18 19 20 25 26 29 29 30 30 30 29 29 31 32 30 29 27 26 24 23
4 7 6 12 2 4 3 6 7 8 12 10 9 10 8 6 5 5 4 5 7 9 11 16 19 21 22 24 27 29 29 29 29 28 32 31 29 28 28 28 26 26 25 24
4 1 3 2 5 8 9 11 13 9 6 10 13 8 7 6 6 6 3 4 6 8 11 17 19 22 22 24 28 28 28 28 28 29 29 31 29 28 30 31 28 30 29 28
7 9 5 5 14 15 14 13 13 15 9 7 10 9 9 6 8 5 3 4 6 9 13 16 19 21 23 26 28 28 27 27 29 30 30 30 30 33 30 28 31 31 30 28
3 5 7 11 12 9 15 15 12 12 13 12 11 14 11 6 6 5 3 4 8 11 12 14 17 20 23 27 28 27 27 28 30 29 30 29 30 29 30 39 31 28 28 29
10 9 8 4 6 12 16 16 20 17 15 15 15 14 11 9 6 4 4 5 8 9 10 14 17 21 24 28 28 27 28 28 27 29 28 28 27 29 28 28 28 34 37 32
6 5 8 14 14 14 19 18 14 11 10 11 13 12 9 8 6 4 5 6 8 7 11 14 18 23 26 28 27 30 27 27 28 28 27 28 27 27 27 26 26 28 31 32
9 12 14 15 15 14 14 12 13 10 8 10 10 9 8 7 6 5 5 6 7 9 12 15 18 23 26 26 29 27 28 27 27 27 27 26 27 27 26 26 26 26 26 28
13 10 13 13 13 12 11 8 9 8 11 10 10 9 7 7 6 5 5 5 5 7 10 16 16 21 22 22 27 26 29 28 27 27 25 26 27 26 27 26 26 27 27 26
8 11 9 13 13 12 10 12 14 14 11 12 11 9 7 6 4 2 3 3 5 6 11 17 16 19 20 22 24 30 29 27 27 26 26 27 27 27 26 27 27 27 25 26
14 14 16 16 16 15 14 14 13 15 14 13 12 9 7 4 2 1 2 4 9 11 15 18 16 18 22 21 23 27 29 29 28 27 26 27 28 27 27 27 28 26 25 24
13 18 20 19 18 19 15 16 18 16 13 12 11 10 7 4 2 3 4 6 9 10 13 15 16 19 23 22 22 25 28 29 28 28 25 27 26 28 29 29 28 26 25 24
11 15 16 16 15 16 18 17 17 14 11 10 9 8 6 4 3 4 5 6 9 12 13 11 15 18 20 20 22 24 26 28 29 28 26 27 27 27 28 29 28 27 26 25
11 12 13 15 15 15 13 12 11 12 11 9 7 5 4 4 3 2 1 6 8 9 12 10 16 16 16 17 21 23 24 27 29 28 27 28 27 27 28 29 28 27 26 25
13 14 14 13 14 14 12 10 10 10 10 8 6 4 2 2 2 2 1 6 7 8 9 11 13 14 14 16 19 22 23 25 28 29 29 28 28 27 28 28 30 27 27 26
14 13 12 11 13 12 10 8 7 7 7 6 5 3 2 1 3 1 4 5 5 7 9 11 11 13 14 15 17 19 22 24 26 28 30 28 32 32 32 30 30 28 28 27
11 11 11 10 8 6 7 7 6 5 5 4 4 4 2 2 2 2 4 5 4 6 8 10 10 11 14 14 14 16 20 22 23 25 29 30 33 34 34 34 31 31 28 27
8 7 7 5 3 4 6 5 4 5 5 5 4 5 3 3 2 2 3 4 5 5 7 9 10 11 12 13 13 14 16 19 22 26 27 29 32 34 36 36 34 34 31 27
6 5 5 4 3 4 5 4 5 6 5 6 5 5 5 5 4 3 3 3 4 4 5 7 9 11 11 12 12 12 13 15 19 22 25 28 30 32 34 35 35 35 35 32
Wind_Direction
234 230 203 192 200 192 210 216 196 247 227 261 211 219 219 191 143 141 135 125 116 113 31 5 351 340 333 331 331 331 327 324 319 318 317 314 312 310 308 306 304 303 301 299
273 105 201 264 223 226 230 234 245 256 269 292 96 97 136 152 154 151 151 140 107 60 18 354 338 332 328 329 330 330 328 321 318 315 314 314 311 309 308 307 305 304 301 298
245 38 325 286 245 217 230 206 220 237 247 159 178 173 170 159 153 152 141 114 83 48 358 335 331 336 334 331 332 330 321 319 318 317 315 312 310 309 308 307 305 302 300 299
183 171 242 234 175 182 230 242 211 247 180 170 161 109 100 113 143 138 135 114 85 16 337 339 339 339 336 335 334 328 321 319 318 317 313 311 310 309 308 307 304 302 301 299
160 204 296 310 178 174 172 262 210 223 162 125 116 99 78 112 107 130 121 120 101 4 344 342 343 340 337 336 334 327 324 319 317 315 310 310 310 310 308 306 304 302 300 298
153 196 230 233 164 174 180 282 195 172 162 148 146 157 211 143 118 110 116 107 44 355 351 350 347 341 338 335 331 326 322 317 315 311 310 309 308 307 306 305 302 302 301 298
200 237 273 220 156 148 136 246 147 152 152 152 171 159 127 119 110 126 117 84 5 0 357 350 347 343 340 334 328 325 319 315 313 312 311 311 310 306 307 303 302 300 298 298
176 223 261 134 75 177 188 62 133 121 133 120 120 122 119 123 124 121 109 45 13 357 351 349 350 349 340 329 332 329 321 315 314 315 315 313 309 308 307 305 301 301 301 297
191 205 140 183 142 145 129 131 141 117 111 134 134 135 134 134 133 121 87 45 7 355 342 349 353 352 336 334 335 327 320 314 316 317 318 316 315 310 309 309 304 302 300 298
137 204 197 191 94 112 114 119 112 118 129 138 130 136 130 132 124 110 77 26 356 349 346 346 350 347 341 337 337 329 318 317 320 321 324 322 319 315 310 308 307 304 300 298
270 133 85 199 174 141 109 110 107 96 113 129 130 133 130 127 124 117 90 18 360 352 348 347 345 342 343 341 341 326 320 322 324 324 325 323 319 316 313 307 305 308 307 303
218 191 176 170 158 141 134 129 130 124 113 102 124 127 127 123 123 110 64 8 1 0 354 346 339 340 345 348 344 329 321 329 327 329 327 323 321 319 319 316 316 315 312 308
190 75 74 102 117 123 125 133 122 118 128 125 115 124 126 119 119 111 78 19 10 358 348 339 338 342 350 350 344 330 323 329 328 330 324 323 323 321 321 324 326 324 323 322
107 100 82 139 147 125 121 124 119 109 110 115 117 119 122 125 118 106 58 17 3 351 348 342 344 350 353 350 344 331 331 336 332 327 324 323 322 320 317 318 320 323 330 332
30 30 109 113 111 110 114 122 117 115 116 108 118 123 131 131 124 91 41 19 3 355 352 352 352 353 355 353 342 337 337 337 333 329 325 326 322 320 318 317 320 317 323 330
89 92 109 113 116 120 125 123 118 122 117 123 122 126 129 118 106 71 38 12 5 350 354 356 354 356 354 353 349 340 341 342 339 331 326 326 325 321 324 325 323 323 324 325
107 109 116 117 126 126 122 117 122 126 126 126 130 133 121 106 90 55 23 7 9 3 4 0 351 355 351 1 355 345 347 343 339 331 329 328 324 330 326 325 324 324 327 335
101 109 115 127 130 126 116 115 118 122 126 137 136 129 111 98 92 31 6 21 12 22 11 1 358 346 2 7 356 352 356 346 337 331 331 330 337 332 331 331 329 332 337 344
100 109 114 118 121 115 116 116 118 130 137 142 137 127 124 119 117 78 51 46 23 6 2 359 352 360 6 7 357 360 5 355 344 339 337 339 339 339 340 337 340 342 347 349
94 100 103 103 107 117 116 127 136 135 139 140 137 141 146 148 127 81 58 40 19 355 349 351 357 8 7 359 360 8 9 4 352 346 343 344 343 343 342 347 349 351 352 356
98 104 105 108 108 120 132 143 144 142 147 150 152 149 138 113 76 60 48 31 6 8 345 360 8 12 7 354 6 13 11 9 4 354 343 342 343 346 348 350 353 356 355 359
101 102 104 111 112 116 129 138 145 146 150 150 146 139 127 111 85 74 59 14 3 352 343 7 15 11 0 4 15 15 13 12 12 1 349 349 348 348 348 351 354 357 358 2
91 104 113 119 126 131 135 142 152 157 158 161 156 140 119 98 111 62 296 357 2 1 349 18 12 8 5 14 18 16 15 15 15 3 357 352 355 355 352 352 354 358 360 5
114 118 118 130 140 144 143 154 151 155 155 148 150 149 142 143 180 5 340 344 360 337 358 14 11 11 15 18 19 18 18 17 18 8 10 8 10 9 2 357 356 359 6 11
125 127 134 139 142 151 152 156 155 154 160 165 175 182 178 197 219 284 334 333 348 346 2 16 17 16 21 19 17 18 21 20 18 10 12 16 17 15 9 7 359 2 5 17
139 146 152 148 132 160 165 167 173 180 192 194 202 212 213 228 256 311 307 320 347 357 359 13 21 22 21 17 14 15 20 20 20 19 15 18 20 21 18 15 3 4 7 17
129 135 140 158 176 174 190 203 210 213 232 233 232 223 228 229 235 284 304 331 345 351 360 9 15 19 18 14 13 15 16 19 20 15 17 20 21 21 21 20 10 9 13 17